Погода Павловский Посад

Погода Павловский Посад : погода сейчас, прогноз погоды и архив. Всё, что Вы хотите узнать о погоде Павловский Посад!

Хотите узнать прогноз погоды Павловский Посад? Тогда Вам сюда: Погода Павловский Посад

Поиск расширенной информации на нашем сайте:

Другие новости

Новости СМИ2

Главная страница сайта

Новости сайта

02.10.2013

Напоминаем, что на нашем новом сайте вы можете получить высокодетализированные прогнозы погоды по пунктам России, СНГ и мира (включающие важные для авиации метеовеличины, такие как направление и скорость ветра, видимость, явления погоды, количество и форма облачности, нижняя и верхняя граница облачности), а также ознакомиться с разнообразными материалами по авиационной метеорологии и подборкой полезных ссылок на эту тему.

Сайт Метеоцентр.Азия посвящён разработке технологий оптимизации авиаметеорологического обслуживания, включая проектирование и перспективное создание нескольких автоматизированных авиаметеорологических систем:
- система выпуска высокодетальных прогностических карт явлений погоды для нижнего воздушного пространства по России и ближнему зарубежью;
- система верификации прогнозов TAF (выпускаемых синоптиками официальных АМСГ РФ и ближнего зарубежья) и AUTOTAF (выпускаемых сайтом Метеоцентр.Азия) - выявление ошибок, онлайн-сопоставление с фактической погодой METAR, автоматическое внесение коррективов в прогнозы при резком отклонении фактической погоды от прогноза, подсчёт оправдываемости прогнозов по элементам и в целом;
- система обработки, анализа и отображения авиаметеорологической информации для применения провайдерами метеорологической информации.

Рекомендуем: программа для просмотра youtube

Погода Павловский Посад - сегодня

Время (UTC), дата Ветер
(°,м/с) 
Видим.   Явления Облачность Т
(°С)
Тd
(°С)
f(%) Тe
(°С)
Pmin
(гПа)
dP
(гПа)
Po
(мм)
O2
(г/м3)
Тmin Tmax R s Состояние
почвы
00 25.04.17 250 (З) 10 км    ясно 
-0.5 -1.6 92 1011.1  746  301           
03 25.04.17 220 (ЮЗ) 10 км    ясно 
+0.1 -2.1 85 +1  1012.8  1.7  747  301  -0.7         
06 25.04.17 270 (З) 10 км    ясно 
+7.7 -4.6 41 +8  1014.3  1.9  748  294  -0.7        влажная 
09 25.04.17 210 (ЮЗ) 10 км    10/9 600 м кучево-дожд., верхняя 
[Cb cap|Ci fib]
+9.6 -8.1 28 +10  1015  0.7  749  292           
12 25.04.17 210 (ЮЗ) 10 км    9/9 600 м кучево-дожд. 
[Cb cap]
+10.2 -7.1 29 +9  1015.2  0.3  749  292           
15 25.04.17 180 (Ю) 2{10}  10 км    6/6 600 м кучево-дожд. 
[Cb cap]
+10.3 -5.3 33 +10  1015.7  0.5  750  292           
18 25.04.17 140 (ЮВ) 10 км    ясно 
+5.1 -3.7 53 +6  1017.2  1.1  750  297    +11.2       
21 25.04.17 160 (Ю) 10 км    ясно 
+3.1 -4.2 59 +4  1017.5  0.2  751  300           
00 26.04.17 120 (ЮВ) 10 км    ясно 
+1.5 -4.3 65 +2  1017.4  -0.2  750  301           
03 26.04.17 120 (ЮВ) 10 км    10/0 верхняя 
[Cs]
+3.5 -3.1 62 +3  1015.8  -1.4  749  298  +1.3         
06 26.04.17 160 (Ю) 5{10}  10 км    10/0 верхняя 
[Cs]
+9.9 -2 43 +9  1013.9  -1.5  748  291  +1.3        влажная 
09 26.04.17 160 (Ю) 7-14{14}  10 км    9/9 600 м 
[Sc]
+13.4 +0.1 40 +12  1012  -1.6  747  287           
12 26.04.17 180 (Ю) 8-15{15}  10 км    10/10 600 м 
[Sc]
+17.7 +1.1 33 +17  1009.4  -2.3  745  282           
15 26.04.17 180 (Ю) 7-13{15}  10 км    10/4 600 м кучево-дожд., верхняя 
[Cb cap|Cs]
+18.5 +1.1 31 +18  1007.9  -1.4  744  281           
18 26.04.17 300 (СЗ) 1{15}  10 км  {ливн. осадки}  10/10 600 м кучево-дожд. 
[Cb cap]
+10.9 +7.3 78 +12  1011.3  746  288    +18.8  0.0     
21 26.04.17 тихо ()   10 км  {ливн. осадки}  10/0 средняя 
[Ac As]
+8.5 +7 90 +9  1012.8  1.3  747  291           
00 27.04.17 300 (СЗ) 10 км  {ливн. осадки}  10/10 600 м 
[Sc]
+7.7 +5.7 87 +8  1013.3  0.5  748  292           
03 27.04.17 350 (С) 10 км  слаб. ливневой дождь  10/10 600 м кучево-дожд. 
[Cb cap]
+3.9 +2.8 93 +3  1014.8  1.3  749  297  +3.9       
06 27.04.17 060 (СВ) 4000 м  слаб. ливневой дождь  10/10 600 м кучево-дожд. 
[Cb cap]
+4.2 +3.4 95 +5  1015.5  0.7  749  297  +3.7      влажная 
09 27.04.17 130 (ЮВ) 4000 м  слаб. морось{ливн. осадки}  10/10 300 м 
[St]
+6.1 +4.9 92 +7  1015.6  0.2  749  295           
12 27.04.17 тихо ()   4000 м  слаб. дождь{ливн. осадки}  10/10 300 м 
[Frnb|Ns]
+8 +6.7 91 +8  1014.7  -0.8  749  292           
15 27.04.17 340 (С) 4000 м  дымка{дождь}  10/10 300 м 
[St]
+7.5 +6.4 93 +7  1013.9  -0.8  748  292         
18 27.04.17 330 (СЗ) 10 км  {дождь}  10/10 600 м 
[Sc]
+5.6 +4.6 93 +6  1016.1  750  295    +8.4     
21 27.04.17 320 (СЗ) 10 км    10/10 600 м 
[Sc]
+5.1 +4.2 94 +5  1017.4  1.3  751  296           
00 28.04.17 350 (С) 10 км    10/10 600 м 
[Sc]
+4.2 +3.2 93 +4  1017.9  0.4  751  298           
Время (UTC), дата Ветер
(°,м/с) 
Видим.   Явления Облачность Т
(°С)
Тd
(°С)
f(%) Тe
(°С)
Pmin
(гПа)
dP
(гПа)
Po
(мм)
O2
(г/м3)
Тmin Tmax R s Состояние
почвы

Для получения пояснительной информации подведите курсор к названию столбца.

ПОГОДА Павловский Посад - архив

Всё, что Вы хотите узнать о погоде Павловский Посад - удобно и подробно!

Выберите нужную дату (начиная с 1 января 2015* года) и нажмите кнопку "Найти".
Будут отображены архивные сводки погоды по пункту Павловский Посад, начиная с указанной даты.


Отображать данные в формате CSV (для использования в таблицах Excel)


Внимание! Наш архив погоды предназначен исключительно для личного некоммерческого использования в познавательных целях. Если Вам необходимы официальные справки о состоянии погоды (для производственных, юридических, коммерческих и т.п. целей), обращайтесь в органы Росгидромета.

*Примечание: данная дата относится к архиву по метеостанциям СССР (Россия, СНГ, Балтия).
Архив по метеостанциям Зарубежной Европы и Азии (кроме Китая) хранится 10 дней, по другим регионам земного шара (Китай, Африка, Америка, Австралия, Океания) - 1 день.

Павловский Посад - район местоположения метеостанции


Название, широта, долгота, высота метеостанции:
Павловский Посад 55.8°ш. 38.7°д. 135 м над ур. моря [Российская Федерация]

Дополнительная информация

В oтличие oт бoльшинства пoгoдных сайтoв мы публикуем пoдрoбную метеoинфoрмацию в детальнoм прoфессиoнальнoм фoрмате.

Характеристики температуры и влажнoсти вoздуха измеряются на высoте 2 м в тени вдали oт зданий и деревьев.
Скoрoсть ветра измеряется на высoте 10 м (на урoвне рoста челoвека скoрoсть ветра ниже в 1.5-2 раза). Если метеoстанция нахoдится в гoрoде или в лесу, тo скoрoсть ветра занижена на 2-4 м/с пo сравнению с oткрытым местoм. Скoрoсть ветра над акватoриями крупных рек и oзёр, а также на вершинах хoлмoв на 2-5 м/с выше, чем в oбычных услoвиях.
Атмoсфернoе давление в разных тoчках местнoсти мoжет значительнo oтличаться oт давления на метеoстанции, в зависимoсти oт услoвий рельефа (при пoдъёме на 10 м давление пoнижается примернo на 1 мм рт.ст.).